New Delhi, India

2:40 PM IST on September 24, 2017 (GMT +0530)
Indira Gandhi International

Weather History for VIDP - October, 2013

Change the Weather History Date:

Wednesday, October 2, 2013

  Actual Average Record
Temperature  
Mean Temperature 84 °F -  
Max Temperature 91 °F 87 °F 100 °F (2007)
Min Temperature 77 °F 66 °F 68 °F (2003)
Cooling Degree Days 19    
Growing Degree Days 34 (Base 50)    
Moisture  
Dew Point 72 °F    
Average Humidity 68    
Maximum Humidity 89    
Minimum Humidity 52    
Precipitation  
Precipitation 0.00 in - - ()
Sea Level Pressure  
Sea Level Pressure 29.84 in    
Wind  
Wind Speed 7 mph ()    
Max Wind Speed 14 mph    
Max Gust Speed -    
Visibility 2.2 miles    
Events      
Averages and records for this station are not official NWS values.
T = Trace of Precipitation, MM = Missing Value Source: Averaged Metar Reports

Daily Weather History Graph

Daily Weather History Graph

Search for Another Location

Airport or City:

Trip Planner

Search our weather history database for the weather conditions in past years. The results will help you decide how hot, cold, wet, or windy it might be!

Date:

Astronomy

Oct. 02, 2013 Rise Set
Actual Time 6:14 AM IST 6:06 PM IST
Civil Twilight 5:51 AM IST 6:29 PM IST
Nautical Twilight 5:24 AM IST 6:57 PM IST
Astronomical Twilight 4:56 AM IST 7:24 PM IST
Moon 3:32 AM IST (10/2) 4:18 PM IST (10/2)
Length of Visible Light 12h 38m
Length of Day
11h 51m
Waning Crescent, 8% of the Moon is Illuminated
Oct 2
Waning Crescent
Oct 5
New
Oct 12
First Quarter
Oct 19
Full
Oct 27
Last Quarter

Hourly Weather History & Observations

Time (IST) Temp. Heat Index Dew Point Humidity Pressure Visibility Wind Dir Wind Speed Gust Speed Precip Events Conditions
12:00 AM 78.8 °F - 71.6 °F 78% 29.83 in 2.2 mi East 5.8 mph - N/A   Partly Cloudy
12:30 AM 78.8 °F - 71.6 °F 78% 29.83 in 2.2 mi East 6.9 mph - N/A   Partly Cloudy
1:00 AM 78.8 °F - 71.6 °F 78% 29.83 in 2.2 mi East 5.8 mph - N/A   Partly Cloudy
1:30 AM 78.8 °F - 71.6 °F 78% 29.83 in 2.2 mi ESE 5.8 mph - N/A   Partly Cloudy
2:00 AM 78.8 °F - 71.6 °F 78% 29.83 in 2.2 mi East 5.8 mph - N/A   Partly Cloudy
2:30 AM 78.8 °F - 71.6 °F 78% 29.83 in 2.2 mi East 6.9 mph - N/A   Partly Cloudy
3:00 AM 78.8 °F - 71.6 °F 78% 29.83 in 2.2 mi ESE 6.9 mph - N/A   Partly Cloudy
3:30 AM 78.8 °F - 71.6 °F 78% 29.83 in 2.2 mi East 6.9 mph - N/A   Partly Cloudy
4:00 AM 82.4 °F 87.2 °F 71.6 °F 70% 29.83 in 2.2 mi NE 3.5 mph - N/A   Scattered Clouds
4:30 AM 77.0 °F - 71.6 °F 83% 29.83 in 2.2 mi NE 3.5 mph - N/A   Scattered Clouds
5:00 AM 77.0 °F - 73.4 °F 89% 29.83 in 2.2 mi ENE 5.8 mph - N/A   Scattered Clouds
5:30 AM 77.0 °F - 73.4 °F 89% 29.83 in 2.2 mi ENE 5.8 mph - N/A   Scattered Clouds
6:00 AM 77.0 °F - 73.4 °F 89% 29.83 in 2.2 mi ENE 5.8 mph - N/A   Scattered Clouds
6:30 AM 77.0 °F - 71.6 °F 83% 29.86 in - ENE 4.6 mph - N/A   Scattered Clouds
7:00 AM 78.8 °F - 71.6 °F 78% 29.86 in 2.2 mi ENE 5.8 mph - N/A   Scattered Clouds
7:30 AM 78.8 °F - 71.6 °F 78% 29.86 in 2.2 mi ENE 5.8 mph - N/A   Scattered Clouds
8:00 AM 80.6 °F 85.4 °F 73.4 °F 79% 29.89 in - East 8.1 mph - N/A   Scattered Clouds
9:00 AM 84.2 °F 89.6 °F 71.6 °F 66% 29.89 in 1.7 mi ESE 9.2 mph - N/A   Haze
9:30 AM 84.2 °F 88.4 °F 69.8 °F 62% 29.92 in 1.7 mi ESE 9.2 mph - N/A   Haze
10:00 AM 86.0 °F 91.8 °F 71.6 °F 62% 29.89 in 1.7 mi ESE 9.2 mph - N/A   Haze
11:00 AM 86.0 °F 89.4 °F 68.0 °F 55% 29.89 in 1.9 mi SE 10.4 mph - N/A   Haze
11:30 AM 87.8 °F 91.4 °F 68.0 °F 52% 29.89 in 1.9 mi ESE 13.8 mph - N/A   Haze
12:00 PM 89.6 °F 94.7 °F 69.8 °F 52% 29.86 in 2.2 mi East 13.8 mph - N/A   Haze
12:30 PM 89.6 °F 94.7 °F 69.8 °F 52% 29.86 in 2.2 mi ESE 13.8 mph - N/A   Haze
1:00 PM 89.6 °F 94.7 °F 69.8 °F 52% 29.86 in 2.2 mi ESE 12.7 mph - N/A   Haze
1:30 PM 91.4 °F 98.4 °F 71.6 °F 52% 29.83 in - ESE 12.7 mph - N/A   Haze
2:00 PM 91.4 °F 98.4 °F 71.6 °F 52% 29.83 in 2.2 mi East 10.4 mph - N/A   Haze
2:30 PM 91.4 °F 100.1 °F 73.4 °F 55% 29.80 in 2.2 mi East 11.5 mph - N/A   Haze
3:00 PM 91.4 °F 100.1 °F 73.4 °F 55% 29.80 in 2.2 mi East 10.4 mph - N/A   Haze
3:30 PM 91.4 °F 100.1 °F 73.4 °F 55% 29.80 in 2.2 mi ESE 10.4 mph - N/A   Haze
4:00 PM 91.4 °F 100.1 °F 73.4 °F 55% 29.80 in 2.2 mi East 11.5 mph - N/A   Haze
4:30 PM 89.6 °F 98.2 °F 73.4 °F 59% 29.80 in 2.2 mi East 11.5 mph - N/A   Haze
5:00 PM 87.8 °F 93.8 °F 71.6 °F 58% 29.80 in 2.2 mi East 8.1 mph - N/A   Haze
5:30 PM 87.8 °F 93.8 °F 71.6 °F 58% 29.80 in 2.5 mi East 10.4 mph - N/A   Haze
6:00 PM 87.8 °F 93.8 °F 71.6 °F 58% 29.80 in 2.5 mi East 8.1 mph - N/A   Haze
6:30 PM 87.8 °F 93.8 °F 71.6 °F 58% 29.80 in 2.5 mi East 8.1 mph - N/A   Haze
7:00 PM 84.2 °F 89.6 °F 71.6 °F 66% 29.80 in 2.5 mi East 9.2 mph - N/A   Haze
7:30 PM 84.2 °F 90.9 °F 73.4 °F 70% 29.83 in 2.5 mi East 9.2 mph - N/A   Haze
8:00 PM 84.2 °F 90.9 °F 73.4 °F 70% 29.83 in 2.5 mi East 6.9 mph - N/A   Haze
8:30 PM 82.4 °F 87.2 °F 71.6 °F 70% 29.83 in 2.5 mi East 6.9 mph - N/A   Haze
9:00 PM 82.4 °F 87.2 °F 71.6 °F 70% 29.86 in 2.5 mi East 6.9 mph - N/A   Haze
9:30 PM 82.4 °F 87.2 °F 71.6 °F 70% 29.86 in 2.5 mi East 6.9 mph - N/A   Haze
10:00 PM 82.4 °F 87.2 °F 71.6 °F 70% 29.86 in 2.5 mi East 8.1 mph - N/A   Haze
10:30 PM 80.6 °F 84.6 °F 71.6 °F 74% 29.86 in 2.5 mi East 6.9 mph - N/A   Haze
11:00 PM 80.6 °F 84.6 °F 71.6 °F 74% 29.86 in 2.5 mi East 6.9 mph - N/A   Haze
11:30 PM 78.8 °F - 69.8 °F 74% 29.86 in 2.5 mi East 6.9 mph - N/A   Haze